Volver al catálogo

CZ-8 R/B

ActivoLEO
NORAD 65314·ROCKET BODY·🇨🇳 China

Lanzado Aug 25, 2025 desde Wenchang Space Launch Site

Loading…

Próximos Pases (próximas 24 horas)

TLE

ActualizadoSource: Space-Track

Época: Sep 14, 2026, 14:15 UTC

1 65314U 25187K   26257.59386303 -.00000062  00000-0  36727-4 0  9999
2 65314  50.0095  13.1638 0116112 359.3729   0.7025 14.30698593 55093

Sigue CZ-8 R/B en tiempo real con AllMySat

Download on the App Store